Stations météo

réclame
Mon MeteoGroup
Torino/Caselle, Italie (16059): Température de l'air & dewpoint: 08.08.2018 19:00:00 - 14.08.2018 19:00:00 (CEST)Torino/Caselle, Italie (16059): Vitesse du vent: 08.08.2018 19:00:00 - 14.08.2018 19:00:00 (CEST)Torino/Caselle, Italie (16059): Direction du vent: 08.08.2018 19:00:00 - 14.08.2018 19:00:00 (CEST)Torino/Caselle, Italie (16059): reduced air pressure: 08.08.2018 19:00:00 - 14.08.2018 19:00:00 (CEST)Torino/Caselle, Italie (16059): visibility: 08.08.2018 19:00:00 - 14.08.2018 19:00:00 (CEST)Torino/Caselle, Italie (16059): Quantités de précipitations: 08.08.2018 19:00:00 - 14.08.2018 19:00:00 (CEST)
Date & Time tt [°C] td [°C] ff [km/h] ff [knt] dd ppp [hPa] vv [km] rr [mm]
14.08.2018 19:00:00 28,0 13,0 5 3 ENE - 10 -
14.08.2018 18:00:00 28,0 15,0 4 2 - - 10 -
14.08.2018 17:00:00 28,6 15,6 4 2 - 1012,1 10 0,0
14.08.2018 16:00:00 27,0 17,0 8 4 NW - 10 -
14.08.2018 15:00:00 27,0 17,0 5 3 SE - 10 -
14.08.2018 14:00:00 25,6 16,9 5 3 ENE 1013,0 10 -
14.08.2018 13:00:00 25,0 18,0 5 3 - - 10 -
14.08.2018 12:00:00 23,0 18,0 5 3 E - 10 -
14.08.2018 11:00:00 21,8 17,8 4 2 - 1013,7 10 0,0
14.08.2018 10:00:00 21,0 18,0 4 2 - - 10 -
14.08.2018 09:00:00 19,0 17,0 4 2 - - 10 -
14.08.2018 08:00:00 18,2 17,2 2 1 - 1012,8 10 -
14.08.2018 07:00:00 17,0 17,0 2 1 NE - 10 -
14.08.2018 06:00:00 18,0 17,0 2 1 - - 10 -
14.08.2018 05:00:00 18,9 17,7 4 2 NW 1011,7 10 0,0
14.08.2018 04:00:00 19,0 18,0 4 2 - - 10 -
14.08.2018 03:00:00 19,0 18,0 5 3 N - 10 -
14.08.2018 02:00:00 19,4 18,6 5 3 WSW 1012,0 10 -
14.08.2018 01:00:00 21,0 19,0 4 2 - - 10 -
14.08.2018 00:00:00 21,0 19,0 2 1 - - 10 -
13.08.2018 23:00:00 20,1 19,3 5 3 ENE 1012,9 10 0,0
13.08.2018 22:00:00 21,0 19,0 5 3 NNE - 10 -
13.08.2018 21:00:00 21,0 19,0 5 3 N - 10 -
13.08.2018 20:00:00 21,3 18,4 5 3 ENE 1012,5 10 -
13.08.2018 19:00:00 22,0 19,0 11 6 E - 10 -
13.08.2018 18:00:00 22,0 18,0 13 7 E - 10 -
13.08.2018 17:00:00 22,5 18,3 11 6 E 1012,9 10 0,0
13.08.2018 16:00:00 20,0 18,0 13 7 N - 6 -
13.08.2018 15:00:00 25,0 19,0 8 4 E - 10 -
13.08.2018 14:00:00 24,1 20,5 11 6 SE 1013,3 10 -
13.08.2018 13:00:00 25,0 19,0 8 4 SSE - 10 -
13.08.2018 12:00:00 25,0 20,0 5 3 - - 10 -
13.08.2018 11:00:00 24,6 19,3 8 4 SE 1014,2 10 0,0
13.08.2018 10:00:00 24,0 19,0 2 1 - - 10 -
13.08.2018 09:00:00 23,0 19,0 4 2 - - 10 -
13.08.2018 08:00:00 22,1 19,8 5 3 ESE 1014,4 10 -
13.08.2018 07:00:00 22,0 19,0 4 2 - - 10 -
13.08.2018 06:00:00 21,0 19,0 5 3 NE - 10 -
13.08.2018 05:00:00 21,3 19,0 8 4 N 1014,9 10 0,0
13.08.2018 04:00:00 22,0 20,0 5 3 NE - 10 -
13.08.2018 03:00:00 22,0 20,0 5 3 N - 10 -
13.08.2018 02:00:00 22,3 20,2 5 3 - 1016,0 10 -
13.08.2018 01:00:00 23,0 20,0 8 4 WNW - 10 -
13.08.2018 00:00:00 24,0 20,0 9 5 NW - 10 -
12.08.2018 23:00:00 23,7 20,3 9 5 WNW 1016,7 10 0,0
12.08.2018 22:00:00 24,0 20,0 9 5 NNW - 10 -
12.08.2018 21:00:00 24,0 20,0 9 5 N - 10 -
12.08.2018 20:00:00 24,9 20,2 8 4 NE 1016,2 10 -
12.08.2018 19:00:00 26,0 20,0 9 5 NE - 10 -
12.08.2018 18:00:00 27,0 19,0 13 7 E - 10 -
12.08.2018 17:00:00 27,1 19,3 11 6 ENE 1017,0 10 0,0
12.08.2018 16:00:00 27,0 20,0 11 6 NE - 10 -
12.08.2018 15:00:00 26,0 21,0 13 7 ENE - 10 -
12.08.2018 14:00:00 25,4 20,0 13 7 ENE 1018,9 10 -
12.08.2018 13:00:00 25,0 20,0 11 6 NE - 10 -
12.08.2018 12:00:00 24,0 20,0 13 7 ENE - 10 -
12.08.2018 11:00:00 22,7 19,6 11 6 N 1019,8 10 0,0
12.08.2018 10:00:00 21,0 20,0 13 7 N - 10 -
12.08.2018 09:00:00 21,0 19,0 15 8 N - 10 -
12.08.2018 08:00:00 21,7 18,9 2 1 - 1019,1 10 -
12.08.2018 07:00:00 22,0 17,0 8 4 NNW - 10 -
12.08.2018 06:00:00 21,0 17,0 2 1 - - 10 -
12.08.2018 05:00:00 20,9 16,8 5 3 NNW 1018,4 10 0,0
12.08.2018 04:00:00 22,0 17,0 5 3 NW - 10 -
12.08.2018 03:00:00 21,0 17,0 8 4 NNE - 10 -
12.08.2018 02:00:00 22,4 16,4 8 4 NW 1018,2 10 -
12.08.2018 01:00:00 22,0 17,0 9 5 W - 10 -
12.08.2018 00:00:00 24,0 16,0 8 4 NNW - 10 -
11.08.2018 23:00:00 23,8 16,7 9 5 NNW 1018,1 10 0,0
11.08.2018 22:00:00 25,0 18,0 8 4 WNW - 10 -
11.08.2018 21:00:00 28,0 17,0 5 3 NNE - 10 -
11.08.2018 20:00:00 28,1 18,0 5 3 ENE 1017,0 10 -
11.08.2018 19:00:00 29,0 17,0 5 3 E - 10 -
11.08.2018 18:00:00 30,0 16,0 4 2 - - 10 -
11.08.2018 17:00:00 29,7 14,9 5 3 E 1017,7 10 0,0
11.08.2018 16:00:00 29,0 16,0 5 3 ENE - 10 -
11.08.2018 15:00:00 29,0 16,0 4 2 - - 10 -
11.08.2018 14:00:00 28,6 16,6 5 3 SSE 1019,2 10 -
11.08.2018 13:00:00 27,0 18,0 8 4 E - 10 -
11.08.2018 12:00:00 27,0 16,0 5 3 ENE - 10 -
11.08.2018 11:00:00 25,4 16,1 5 3 ESE 1020,2 10 0,0
11.08.2018 10:00:00 24,0 16,0 5 3 ESE - 10 -
11.08.2018 09:00:00 23,0 17,0 4 2 - - 10 -
11.08.2018 08:00:00 21,4 16,5 5 3 WNW 1020,0 10 -
11.08.2018 07:00:00 19,0 17,0 5 3 E - 10 -
11.08.2018 06:00:00 21,0 16,0 4 2 - - 10 -
11.08.2018 05:00:00 21,0 16,9 5 3 WNW 1019,4 10 0,0
11.08.2018 04:00:00 21,0 18,0 4 2 - - 10 -
11.08.2018 03:00:00 22,0 17,0 5 3 NNW - 10 -
11.08.2018 02:00:00 22,2 17,2 5 3 N 1019,9 10 -
11.08.2018 01:00:00 23,0 17,0 9 5 NW - 10 -
11.08.2018 00:00:00 23,0 18,0 8 4 NNW - 10 -
10.08.2018 23:00:00 23,1 18,5 9 5 NNW 1019,5 10 0,0
10.08.2018 22:00:00 26,0 19,0 8 4 NNW - 10 -
10.08.2018 21:00:00 26,0 19,0 5 3 NE - 10 -
10.08.2018 20:00:00 27,3 19,4 8 4 NE 1018,4 10 -
10.08.2018 19:00:00 29,0 19,0 9 5 ENE - 10 -
10.08.2018 18:00:00 29,0 18,0 5 3 E - 10 -
10.08.2018 17:00:00 29,1 16,8 8 4 ESE 1018,8 10 0,0
10.08.2018 16:00:00 29,0 17,0 8 4 ESE - 10 -
10.08.2018 15:00:00 29,0 17,0 5 3 - - 10 -
10.08.2018 14:00:00 27,8 16,6 4 2 - 1020,0 10 -
10.08.2018 13:00:00 26,0 18,0 5 3 ESE - 10 -
10.08.2018 12:00:00 25,0 17,0 5 3 - - 10 -
10.08.2018 11:00:00 24,7 17,9 4 2 - 1020,7 10 0,0
10.08.2018 10:00:00 23,0 18,0 4 2 - - 10 -
10.08.2018 09:00:00 21,0 17,0 5 3 W - 10 -
10.08.2018 08:00:00 20,0 17,0 5 3 WNW 1020,4 10 -
10.08.2018 07:00:00 18,0 18,0 2 1 - - 10 -
10.08.2018 06:00:00 18,0 17,0 2 1 - - 10 -
10.08.2018 05:00:00 19,0 17,3 4 2 - 1019,1 10 0,0
10.08.2018 04:00:00 20,0 18,0 5 3 W - 10 -
10.08.2018 03:00:00 21,0 18,0 5 3 WSW - 10 -
10.08.2018 02:00:00 20,4 18,3 11 6 W 1019,4 10 -
10.08.2018 01:00:00 21,0 19,0 9 5 NW - 10 -
10.08.2018 00:00:00 20,0 19,0 8 4 N - 10 -
09.08.2018 23:00:00 20,8 19,3 11 6 E 1018,8 10 0,0
09.08.2018 22:00:00 22,0 20,0 5 3 NNE - 10 -
09.08.2018 21:00:00 23,0 20,0 5 3 NE - 10 -
09.08.2018 20:00:00 23,4 19,3 4 2 - 1017,3 10 -
09.08.2018 19:00:00 24,0 19,0 4 2 - - 10 -
09.08.2018 18:00:00 24,0 20,0 8 4 E - 10 -
09.08.2018 17:00:00 24,9 19,1 13 7 NW 1016,9 10 0,0
09.08.2018 16:00:00 25,0 21,0 11 6 WNW - 3,0 -
09.08.2018 15:00:00 28,0 19,0 5 3 E - 10 -
09.08.2018 14:00:00 26,9 19,2 4 2 - 1017,6 10 -
09.08.2018 13:00:00 26,0 19,0 9 5 NE - 10 -
09.08.2018 12:00:00 - - - - - - - -
09.08.2018 11:00:00 24,8 18,6 11 6 E 1018,4 10 0,0
09.08.2018 10:00:00 24,0 18,0 5 3 N - 10 -
09.08.2018 09:00:00 21,0 18,0 8 4 ENE - 10 -
09.08.2018 08:00:00 20,9 17,7 2 1 - 1017,7 10 -
09.08.2018 07:00:00 19,0 17,0 4 2 - - 10 -
09.08.2018 06:00:00 19,0 17,0 8 4 W - 10 -
09.08.2018 05:00:00 18,5 17,1 8 4 E 1016,8 10 0,0
09.08.2018 04:00:00 - - - - - - - -
09.08.2018 03:00:00 - - - - - - - -
09.08.2018 02:00:00 21,3 17,8 5 3 WNW 1017,1 10 -
09.08.2018 01:00:00 21,0 18,0 8 4 W - 10 -
09.08.2018 00:00:00 22,0 18,0 5 3 SSW - 10 -
08.08.2018 23:00:00 21,7 18,1 13 7 NNW 1017,1 10 0,0
08.08.2018 22:00:00 21,0 18,0 34 18 NNW - 10 -
08.08.2018 21:00:00 24,0 18,0 9 5 NW - 10 -
08.08.2018 20:00:00 25,8 16,9 29 16 SSW 1015,4 10 -
08.08.2018 19:00:00 30,0 18,0 8 4 E - 10 -

tt = Température de l'air
td = dewpoint
ff = Vitesse du vent
dd = Direction du vent
ppp = reduced air pressure
vv = visibility
rr = Quantités de précipitations

stations d'obs. à proximité